| time (UTC) | temp F | wind direction | speed knots | gust knots | rain 1hr in | rain 24hr in | rain mn in | humidity % | barometer mb |
| 20260504045742 | 57 | 313 | 14.8 | 16.5 | 0.00 | 0.00 | 0.00 | 38 | 1005.1 |
| 20260504044742 | 57 | 318 | 10.4 | 15.6 | 0.00 | 0.00 | 0.00 | 37 | 1004.9 |
| 20260504043750 | 57 | 321 | 6.1 | 10.4 | 0.00 | 0.00 | 0.00 | 37 | 1004.7 |
| 20260504042750 | 58 | 315 | 5.2 | 13.0 | 0.00 | 0.00 | 0.00 | 37 | 1004.6 |
| 20260504041814 | 58 | 334 | 11.3 | 17.4 | 0.00 | 0.00 | 0.00 | 35 | 1004.4 |
| 20260504040754 | 59 | 335 | 11.3 | 17.4 | 0.00 | 0.00 | 0.00 | 35 | 1004.5 |
| 20260504035759 | 59 | 323 | 11.3 | 17.4 | 0.00 | 0.00 | 0.00 | 34 | 1004.2 |
| 20260504034818 | 60 | 325 | 10.4 | 20.0 | 0.00 | 0.00 | 0.00 | 34 | 1004.0 |
| 20260504033743 | 61 | 308 | 13.9 | 21.7 | 0.00 | 0.00 | 0.00 | 34 | 1003.9 |
| 20260504032742 | 62 | 319 | 18.2 | 20.0 | 0.00 | 0.00 | 0.00 | 34 | 1003.8 |
| 20260504031742 | 62 | 311 | 9.6 | 13.9 | 0.00 | 0.00 | 0.00 | 37 | 1003.6 |
| 20260504030746 | 63 | 309 | 12.2 | 19.1 | 0.00 | 0.00 | 0.00 | 36 | 1003.4 |
| 20260504025750 | 64 | 321 | 11.3 | 19.1 | 0.00 | 0.00 | 0.00 | 35 | 1003.3 |
| 20260504024751 | 65 | 313 | 13.9 | 19.1 | 0.00 | 0.00 | 0.00 | 34 | 1002.8 |
| 20260504023753 | 66 | 304 | 13.0 | 22.6 | 0.00 | 0.00 | 0.00 | 33 | 1002.7 |
| 20260504022758 | 66 | 288 | 13.0 | 19.1 | 0.00 | 0.00 | 0.00 | 32 | 1002.5 |
| 20260504021743 | 66 | 290 | 14.8 | 20.0 | 0.00 | 0.00 | 0.00 | 31 | 1002.3 |
| 20260504020745 | 67 | 288 | 18.2 | 20.0 | 0.00 | 0.00 | 0.00 | 31 | 1002.2 |
| 20260504015806 | 68 | 294 | 15.6 | 20.0 | 0.00 | 0.00 | 0.00 | 30 | 1002.2 |
| 20260504014805 | 68 | 294 | 16.5 | 20.0 | 0.00 | 0.00 | 0.00 | 30 | 1002.0 |
| 20260504013753 | 69 | 277 | 17.4 | 21.7 | 0.00 | 0.00 | 0.00 | 30 | 1002.0 |
| 20260504012754 | 70 | 298 | 14.8 | 24.3 | 0.00 | 0.00 | 0.00 | 30 | 1002.1 |
| 20260504011816 | 70 | 292 | 22.6 | 24.3 | 0.00 | 0.00 | 0.00 | 29 | 1002.0 |
| 20260504010755 | 71 | 293 | 18.2 | 27.8 | 0.00 | 0.00 | 0.00 | 29 | 1002.0 |
| 20260504005803 | 72 | 279 | 17.4 | 27.8 | 0.00 | 0.00 | 0.00 | 28 | 1001.9 |
| 20260504004801 | 73 | 271 | 16.5 | 29.5 | 0.00 | 0.00 | 0.00 | 27 | 1002.0 |
| 20260504003802 | 73 | 294 | 25.2 | 28.7 | 0.00 | 0.00 | 0.00 | 27 | 1002.1 |
| 20260504002741 | 73 | 289 | 20.0 | 31.3 | 0.00 | 0.00 | 0.00 | 27 | 1002.0 |
| 20260504001742 | 73 | 279 | 19.1 | 28.7 | 0.00 | 0.00 | 0.00 | 28 | 1002.1 |
| 20260504000747 | 74 | 280 | 20.0 | 27.8 | 0.00 | 0.00 | 0.00 | 28 | 1002.1 |
| 20260503235748 | 74 | 257 | 21.7 | 26.1 | 0.00 | 0.00 | 0.00 | 28 | 1002.0 |
| 20260503234747 | 74 | 296 | 21.7 | 31.3 | 0.00 | 0.00 | 0.00 | 26 | 1002.1 |
| 20260503233751 | 75 | 279 | 17.4 | 28.7 | 0.00 | 0.00 | 0.00 | 26 | 1002.0 |
| 20260503232752 | 75 | 286 | 21.7 | 29.5 | 0.00 | 0.00 | 0.00 | 25 | 1001.9 |
| 20260503231755 | 76 | 268 | 26.9 | 30.4 | 0.00 | 0.00 | 0.00 | 23 | 1002.0 |
| 20260503230817 | 77 | 273 | 20.0 | 27.8 | 0.00 | 0.00 | 0.00 | 22 | 1002.0 |
| 20260503225817 | 77 | 290 | 19.1 | 27.8 | 0.00 | 0.00 | 0.00 | 21 | 1002.0 |
| 20260503224757 | 77 | 255 | 20.0 | 24.3 | 0.00 | 0.00 | 0.00 | 21 | 1001.8 |
| 20260503223757 | 77 | 279 | 20.0 | 26.9 | 0.00 | 0.00 | 0.00 | 22 | 1002.2 |
| 20260503222800 | 77 | 250 | 22.6 | 26.9 | 0.00 | 0.00 | 0.00 | 22 | 1002.3 |
| 20260503221800 | 77 | 261 | 13.9 | 24.3 | 0.00 | 0.00 | 0.00 | 23 | 1002.6 |
| 20260503220759 | 76 | 237 | 24.3 | 27.8 | 0.00 | 0.00 | 0.00 | 22 | 1002.7 |
| 20260503215821 | 76 | 236 | 22.6 | 28.7 | 0.00 | 0.00 | 0.00 | 22 | 1002.9 |
| 20260503214746 | 77 | 259 | 15.6 | 25.2 | 0.00 | 0.00 | 0.00 | 24 | 1002.9 |
| 20260503213745 | 76 | 251 | 22.6 | 26.1 | 0.00 | 0.00 | 0.00 | 23 | 1003.3 |
| 20260503212746 | 77 | 277 | 20.9 | 26.1 | 0.00 | 0.00 | 0.00 | 23 | 1003.5 |
| 20260503211807 | 76 | 224 | 19.1 | 25.2 | 0.00 | 0.00 | 0.00 | 25 | 1003.8 |
| 20260503210748 | 76 | 259 | 25.2 | 28.7 | 0.00 | 0.00 | 0.00 | 25 | 1003.9 |
| 20260503205752 | 76 | 246 | 12.2 | 26.9 | 0.00 | 0.00 | 0.00 | 24 | 1004.1 |
| 20260503204755 | 75 | 245 | 20.0 | 25.2 | 0.00 | 0.00 | 0.00 | 25 | 1004.4 |
| 20260503203754 | 76 | 253 | 17.4 | 25.2 | 0.00 | 0.00 | 0.00 | 24 | 1004.5 |
| 20260503202819 | 75 | 265 | 13.0 | 25.2 | 0.00 | 0.00 | 0.00 | 25 | 1004.5 |
| 20260503201742 | 74 | 256 | 11.3 | 21.7 | 0.00 | 0.00 | 0.00 | 26 | 1004.8 |
| 20260503200743 | 74 | 224 | 9.6 | 20.0 | 0.00 | 0.00 | 0.00 | 28 | 1005.0 |
| 20260503195743 | 75 | 223 | 10.4 | 20.9 | 0.00 | 0.00 | 0.00 | 26 | 1005.3 |
| 20260503194744 | 74 | 236 | 13.0 | 18.2 | 0.00 | 0.00 | 0.00 | 28 | 1005.4 |
| 20260503193746 | 73 | 217 | 13.9 | 20.0 | 0.00 | 0.00 | 0.00 | 29 | 1005.9 |
| 20260503192753 | 73 | 240 | 13.0 | 27.8 | 0.00 | 0.00 | 0.00 | 29 | 1006.1 |
| 20260503191754 | 72 | 244 | 12.2 | 16.5 | 0.00 | 0.00 | 0.00 | 28 | 1006.3 |
| 20260503190754 | 72 | 241 | 4.3 | 16.5 | 0.00 | 0.00 | 0.00 | 30 | 1006.6 |
| 20260503185755 | 72 | 216 | 13.9 | 15.6 | 0.00 | 0.00 | 0.00 | 30 | 1006.7 |
| 20260503184741 | 72 | 264 | 13.9 | 18.2 | 0.00 | 0.00 | 0.00 | 31 | 1007.2 |
| 20260503183742 | 71 | 212 | 5.2 | 16.5 | 0.00 | 0.00 | 0.00 | 31 | 1007.5 |
| 20260503182806 | 70 | 271 | 12.2 | 17.4 | 0.00 | 0.00 | 0.00 | 30 | 1007.8 |
| 20260503181805 | 70 | 254 | 13.0 | 15.6 | 0.00 | 0.00 | 0.00 | 33 | 1008.1 |
| 20260503180744 | 70 | 285 | 11.3 | 20.0 | 0.00 | 0.00 | 0.00 | 33 | 1008.2 |
| 20260503175748 | 69 | 258 | 11.3 | 16.5 | 0.00 | 0.00 | 0.00 | 32 | 1008.6 |
| 20260503174749 | 69 | 206 | 13.0 | 16.5 | 0.00 | 0.00 | 0.00 | 31 | 1008.7 |
| 20260503173748 | 69 | 238 | 10.4 | 16.5 | 0.00 | 0.00 | 0.00 | 32 | 1008.8 |
| 20260503172749 | 69 | 264 | 12.2 | 16.5 | 0.00 | 0.00 | 0.00 | 36 | 1008.9 |
| 20260503171753 | 68 | 273 | 13.0 | 16.5 | 0.00 | 0.00 | 0.00 | 39 | 1009.0 |
| 20260503170754 | 68 | 251 | 8.7 | 14.8 | 0.00 | 0.00 | 0.00 | 39 | 1009.1 |
| 20260503150758 | 55 | 211 | 0.9 | 3.5 | 0.00 | 0.00 | 0.00 | 52 | 1011.3 |
| 20260503130749 | 38 | 317 | 0.0 | 5.2 | 0.00 | 0.00 | 0.00 | 79 | 1012.2 |
| 20260503110743 | 33 | 317 | 0.0 | 1.7 | 0.00 | 0.00 | 0.00 | 81 | 1012.7 |
| 20260503080746 | 39 | 302 | 0.9 | 1.7 | 0.00 | 0.00 | 0.00 | 75 | 1013.3 |
| 20260503072738 | 40 | 301 | 0.0 | 2.6 | 0.00 | 0.00 | 0.00 | 75 | 1013.5 |
| 20260503071746 | 40 | 301 | 2.6 | 3.5 | 0.00 | 0.00 | 0.00 | 75 | 1013.5 |
| 20260503070746 | 40 | 302 | 2.6 | 3.5 | 0.00 | 0.00 | 0.00 | 75 | 1013.6 |